Location: El Para�so
(10.4896°N, 66.9245°W)
Time: 18:32:08
(UTC+00:00)

ARGOS - Pass Details

Date: 08 August 2020
Orbit: 820 x 834 km, 98.5° (Epoch: 30 September)

Event Time Altitude Azimuth Distance (km) Brightness Sun altitude
Exits shadow 23:33:51 13° 126° (SE) 2,198 4.8 -11.4°
Maximum altitude 23:37:32 27° 75° (ENE) 1,559 4.1 -12.3°
Drops below altitude 10° 23:41:57 10° 20° (NNE) 2,426 5.6 -13.3°
Sets 23:44:37 0° 8° (N) 3,356 6.5 -13.9°
